Regional Weather Roundup
Issued by NWS

Home | Current Version | Previous Version | Text Only | Print | Product List | Glossary Off
Versions: 1 2 3 4 5 6 7 8 9 10 11 12 13 14 15 16 17 18 19 20 21 22 23 24 25 26 27 28 29 30 31 32 33 34 35 36 37 38 39 40 41 42 43 44 45 46 47 48 49 50

000
ASUS43 KLSX 191307
RWRMO

WEATHER SUMMARY FOR MISSOURI
NATIONAL WEATHER SERVICE SPRINGFIELD MO
800 AM CDT SAT APR 19 2014

NOTE: "FAIR" INDICATES FEW OR NO CLOUDS BELOW 12,000 FEET WITH NO
       SIGNIFICANT WEATHER AND/OR OBSTRUCTIONS TO VISIBILITY.
       CURRENT SKY AND/OR WEATHER CONDITIONS ARE NOT AVAILABLE FOR
       CHILLICOTHE AND FARMINGTON.

MOZ001>031-035>038-043-044-053-054-191400-
...NORTHERN AND WESTERN MISSOURI...

CITY           SKY/WX    TMP DP  RH WIND       PRES   REMARKS
KANSAS CTY INT MOSUNNY   56  41  57 S12       30.15R
KANSAS C DTWN  SUNNY     57  41  55 S9        30.16R
LEE`S SUMMIT   SUNNY     56  41  57 S13       30.17R
ST JOSEPH      MOSUNNY   54  42  64 S6        30.15R
CHILLICOTHE      N/A     55  41  59 SE8       30.20S
KIRKSVILLE     SUNNY     50  38  63 SE12      30.24R

$$
MOZ066>068-077>081-088>096-101>105-191400-
...SOUTHWEST MISSOURI...

CITY           SKY/WX    TMP DP  RH WIND       PRES   REMARKS
SPRINGFIELD    SUNNY     55  43  63 SE7       30.23R
JOPLIN         MOSUNNY   58  45  62 S10       30.20R

$$
MOZ032>034-039>042-045>050-055>058-069>072-191400-
...CENTRAL MISSOURI...

CITY           SKY/WX    TMP DP  RH WIND       PRES   REMARKS
COLUMBIA       SUNNY     54  43  66 SE8       30.25R
JEFFERSON CITY SUNNY     48  44  86 SE6       30.26R
ROLLA          SUNNY     55  42  61 SE9       30.25R
SEDALIA        SUNNY     56  43  61 SE12      30.22R
WHITEMAN AFB   SUNNY     56  41  57 S9        30.20R
OSAGE BEACH    SUNNY     54  39  58 S5        30.27R

$$
MOZ051-052-059>065-191400-
...EAST CENTRAL MISSOURI...

CITY           SKY/WX    TMP DP  RH WIND       PRES   REMARKS
ST LOUIS INTL  MOSUNNY   53  40  61 E8        30.29R
SPIRIT OF STL  SUNNY     50  44  80 CALM      30.28R
ST CHARLES     SUNNY     51  40  65 E9        30.28R

$$
MOZ072>076-082>087-097>100-106>115-191400-
...SOUTH CENTRAL AND SOUTHEAST MISSOURI...

CITY           SKY/WX    TMP DP  RH WIND       PRES   REMARKS
CAPE GIRARDEAU MOSUNNY   53  48  83 CALM      30.25R
FARMINGTON     SUNNY     48  43  81 CALM      30.29R
POPLAR BLUFF   SUNNY     55  45  68 N3        30.24R
WEST PLAINS    SUNNY     54  43  66 NE3       30.27R

$$



USA.gov is the U.S. government's official web portal to all federal, state and local government web resources and services.